Location: Mohawk View
(42.7837°N, 73.7885°W)
Time: 12:39:57
(UTC+00:00)

Cosmos 1455 Rocket - Pass Details

Date: 17 June 2021
Orbit: 605 x 629 km, 82.5° (Epoch: 26 July)

Event Time Altitude Azimuth Distance (km) Brightness Sun altitude
Rises 02:56:25 0° 343° (NNW) 2,923 8.1 -18.3°
Reaches altitude 10° 02:58:47 10° 335° (NNW) 2,013 7.0 -18.5°
Maximum altitude 03:02:52 36° 269° (W) 1,002 4.3 -18.9°
Enters shadow 03:05:24 20° 214° (SW) 1,477 4.7 -19.1°
